Year,Month,Day,Hour,Minute,Value (Times are PST for temperature in C)
2006,07,22,00,00,21.40
2006,07,22,00,01,21.40
2006,07,22,00,02,21.40
2006,07,22,00,03,21.40
2006,07,22,00,04,21.40
2006,07,22,00,05,21.40
2006,07,22,00,06,21.40
2006,07,22,00,07,21.40
2006,07,22,00,08,21.40
2006,07,22,00,09,21.40
2006,07,22,00,10,21.40
2006,07,22,00,11,21.40
2006,07,22,00,12,21.40
2006,07,22,00,13,21.40
2006,07,22,00,14,21.30
2006,07,22,00,15,21.30
2006,07,22,00,16,21.30
2006,07,22,00,17,21.30
2006,07,22,00,18,21.30
2006,07,22,00,19,21.30
2006,07,22,00,20,21.30
2006,07,22,00,21,21.20
2006,07,22,00,22,21.20
2006,07,22,00,23,21.20
2006,07,22,00,24,21.10
2006,07,22,00,25,21.10
2006,07,22,00,26,21.10
2006,07,22,00,27,21.10
2006,07,22,00,28,21.10
2006,07,22,00,29,21.10
2006,07,22,00,30,21.00
2006,07,22,00,31,21.10
2006,07,22,00,32,21.10
2006,07,22,00,33,21.10
2006,07,22,00,34,21.10
2006,07,22,00,35,21.10
2006,07,22,00,36,21.00
2006,07,22,00,37,21.00
2006,07,22,00,38,21.00
2006,07,22,00,39,21.00
2006,07,22,00,40,21.00
2006,07,22,00,41,21.00
2006,07,22,00,42,21.00
2006,07,22,00,43,21.00
2006,07,22,00,44,21.00
2006,07,22,00,45,21.00
2006,07,22,00,46,20.90
2006,07,22,00,47,20.90
2006,07,22,00,48,20.90
2006,07,22,00,49,20.80
2006,07,22,00,50,20.80
2006,07,22,00,51,20.70
2006,07,22,00,52,20.70
2006,07,22,00,53,20.60
2006,07,22,00,54,20.60
2006,07,22,00,55,20.50
2006,07,22,00,56,20.50
2006,07,22,00,57,20.50
2006,07,22,00,58,20.50
2006,07,22,00,59,20.50
2006,07,22,01,00,20.50
2006,07,22,01,01,20.50
2006,07,22,01,02,20.50
2006,07,22,01,03,20.50
2006,07,22,01,04,20.50
2006,07,22,01,05,20.50
2006,07,22,01,06,20.40
2006,07,22,01,07,20.40
2006,07,22,01,08,20.40
2006,07,22,01,09,20.40
2006,07,22,01,10,20.40
2006,07,22,01,11,20.30
2006,07,22,01,12,20.30
2006,07,22,01,13,20.30
2006,07,22,01,14,20.20
2006,07,22,01,15,20.20
2006,07,22,01,16,20.20
2006,07,22,01,17,20.20
2006,07,22,01,18,20.20
2006,07,22,01,19,20.20
2006,07,22,01,20,20.20
2006,07,22,01,21,20.10
2006,07,22,01,22,20.10
2006,07,22,01,23,20.00
2006,07,22,01,24,19.90
2006,07,22,01,25,19.90
2006,07,22,01,26,19.80
2006,07,22,01,27,19.80
2006,07,22,01,28,19.80
2006,07,22,01,29,19.80
2006,07,22,01,30,19.80
2006,07,22,01,31,19.80
2006,07,22,01,32,19.80
2006,07,22,01,33,19.80
2006,07,22,01,34,19.80
2006,07,22,01,35,19.90
2006,07,22,01,36,19.90
2006,07,22,01,37,19.90
2006,07,22,01,38,19.80
2006,07,22,01,39,19.80
2006,07,22,01,40,19.80
2006,07,22,01,41,19.80
2006,07,22,01,42,19.80
2006,07,22,01,43,19.90
2006,07,22,01,44,19.90
2006,07,22,01,45,19.90
2006,07,22,01,46,19.90
2006,07,22,01,47,19.90
2006,07,22,01,48,19.90
2006,07,22,01,49,19.90
2006,07,22,01,50,19.90
2006,07,22,01,51,19.90
2006,07,22,01,52,19.90
2006,07,22,01,53,19.90
2006,07,22,01,54,19.90
2006,07,22,01,55,19.90
2006,07,22,01,56,19.90
2006,07,22,01,57,19.90
2006,07,22,01,58,19.90
2006,07,22,01,59,19.90
2006,07,22,02,00,19.90
2006,07,22,02,01,19.90
2006,07,22,02,02,19.90
2006,07,22,02,03,19.90
2006,07,22,02,04,19.90
2006,07,22,02,05,19.90
2006,07,22,02,06,19.90
2006,07,22,02,07,19.90
2006,07,22,02,08,19.90
2006,07,22,02,09,19.90
2006,07,22,02,10,19.90
2006,07,22,02,11,19.90
2006,07,22,02,12,19.90
2006,07,22,02,13,19.90
2006,07,22,02,14,19.90
2006,07,22,02,15,19.90
2006,07,22,02,16,19.90
2006,07,22,02,17,19.90
2006,07,22,02,18,19.90
2006,07,22,02,19,19.90
2006,07,22,02,20,19.90
2006,07,22,02,21,19.90
2006,07,22,02,22,19.90
2006,07,22,02,23,19.90
2006,07,22,02,24,19.80
2006,07,22,02,25,19.80
2006,07,22,02,26,19.80
2006,07,22,02,27,19.80
2006,07,22,02,28,19.80
2006,07,22,02,29,19.70
2006,07,22,02,30,19.60
2006,07,22,02,31,19.50
2006,07,22,02,32,19.40
2006,07,22,02,33,19.30
2006,07,22,02,34,19.20
2006,07,22,02,35,19.20
2006,07,22,02,36,19.10
2006,07,22,02,37,19.10
2006,07,22,02,38,19.10
2006,07,22,02,39,19.10
2006,07,22,02,40,19.10
2006,07,22,02,41,19.10
2006,07,22,02,42,19.10
2006,07,22,02,43,19.10
2006,07,22,02,44,19.10
2006,07,22,02,45,19.20
2006,07,22,02,46,19.20
2006,07,22,02,47,19.30
2006,07,22,02,48,19.30
2006,07,22,02,49,19.40
2006,07,22,02,50,19.40
2006,07,22,02,51,19.50
2006,07,22,02,52,19.50
2006,07,22,02,53,19.60
2006,07,22,02,54,19.60
2006,07,22,02,55,19.60
2006,07,22,02,56,19.60
2006,07,22,02,57,19.50
2006,07,22,02,58,19.50
2006,07,22,02,59,19.50
2006,07,22,03,00,19.40
2006,07,22,03,01,19.40
2006,07,22,03,02,19.40
2006,07,22,03,03,19.40
2006,07,22,03,04,19.40
2006,07,22,03,05,19.30
2006,07,22,03,06,19.30
2006,07,22,03,07,19.30
2006,07,22,03,08,19.30
2006,07,22,03,09,19.30
2006,07,22,03,10,19.30
2006,07,22,03,11,19.40
2006,07,22,03,12,19.40
2006,07,22,03,13,19.40
2006,07,22,03,14,19.40
2006,07,22,03,15,19.40
2006,07,22,03,16,19.40
2006,07,22,03,17,19.40
2006,07,22,03,18,19.40
2006,07,22,03,19,19.40
2006,07,22,03,20,19.40
2006,07,22,03,21,19.40
2006,07,22,03,22,19.40
2006,07,22,03,23,19.40
2006,07,22,03,24,19.40
2006,07,22,03,25,19.40
2006,07,22,03,26,19.40
2006,07,22,03,27,19.40
2006,07,22,03,28,19.40
2006,07,22,03,29,19.40
2006,07,22,03,30,19.40
2006,07,22,03,31,19.40
2006,07,22,03,32,19.40
2006,07,22,03,33,19.40
2006,07,22,03,34,19.50
2006,07,22,03,35,19.50
2006,07,22,03,36,19.50
2006,07,22,03,37,19.50
2006,07,22,03,38,19.50
2006,07,22,03,39,19.50
2006,07,22,03,40,19.50
2006,07,22,03,41,19.50
2006,07,22,03,42,19.50
2006,07,22,03,43,19.50
2006,07,22,03,44,19.50
2006,07,22,03,45,19.50
2006,07,22,03,46,19.50
2006,07,22,03,47,19.50
2006,07,22,03,48,19.50
2006,07,22,03,49,19.60
2006,07,22,03,50,19.60
2006,07,22,03,51,19.60
2006,07,22,03,52,19.60
2006,07,22,03,53,19.60
2006,07,22,03,54,19.60
2006,07,22,03,55,19.60
2006,07,22,03,56,19.60
2006,07,22,03,57,19.60
2006,07,22,03,58,19.60
2006,07,22,03,59,19.60
2006,07,22,04,00,19.60
2006,07,22,04,01,19.60
2006,07,22,04,02,19.60
2006,07,22,04,03,19.60
2006,07,22,04,04,19.60
2006,07,22,04,05,19.50
2006,07,22,04,06,19.50
2006,07,22,04,07,19.50
2006,07,22,04,08,19.50
2006,07,22,04,09,19.40
2006,07,22,04,10,19.40
2006,07,22,04,11,19.40
2006,07,22,04,12,19.30
2006,07,22,04,13,19.30
2006,07,22,04,14,19.30
2006,07,22,04,15,19.30
2006,07,22,04,16,19.30
2006,07,22,04,17,19.30
2006,07,22,04,18,19.30
2006,07,22,04,19,19.30
2006,07,22,04,20,19.40
2006,07,22,04,21,19.40
2006,07,22,04,22,19.50
2006,07,22,04,23,19.50
2006,07,22,04,24,19.50
2006,07,22,04,25,19.50
2006,07,22,04,26,19.50
2006,07,22,04,27,19.50
2006,07,22,04,28,19.50
2006,07,22,04,29,19.50
2006,07,22,04,30,19.50
2006,07,22,04,31,19.40
2006,07,22,04,32,19.40
2006,07,22,04,33,19.40
2006,07,22,04,34,19.40
2006,07,22,04,35,19.30
2006,07,22,04,36,19.30
2006,07,22,04,37,19.30
2006,07,22,04,38,19.30
2006,07,22,04,39,19.20
2006,07,22,04,40,19.20
2006,07,22,04,41,19.20
2006,07,22,04,42,19.20
2006,07,22,04,43,19.20
2006,07,22,04,44,19.20
2006,07,22,04,45,19.20
2006,07,22,04,46,19.20
2006,07,22,04,47,19.20
2006,07,22,04,48,19.20
2006,07,22,04,49,19.20
2006,07,22,04,50,19.20
2006,07,22,04,51,19.20
2006,07,22,04,52,19.20
2006,07,22,04,53,19.20
2006,07,22,04,54,19.20
2006,07,22,04,55,19.20
2006,07,22,04,56,19.20
2006,07,22,04,57,19.20
2006,07,22,04,58,19.30
2006,07,22,04,59,19.30
2006,07,22,05,00,19.30
2006,07,22,05,01,19.40
2006,07,22,05,02,19.40
2006,07,22,05,03,19.40
2006,07,22,05,04,19.30
2006,07,22,05,05,19.30
2006,07,22,05,06,19.30
2006,07,22,05,07,19.20
2006,07,22,05,08,19.10
2006,07,22,05,09,19.10
2006,07,22,05,10,19.10
2006,07,22,05,11,19.00
2006,07,22,05,12,18.90
2006,07,22,05,13,18.90
2006,07,22,05,14,18.90
2006,07,22,05,15,18.90
2006,07,22,05,16,18.90
2006,07,22,05,17,18.90
2006,07,22,05,18,18.90
2006,07,22,05,19,18.90
2006,07,22,05,20,18.90
2006,07,22,05,21,18.90
2006,07,22,05,22,18.90
2006,07,22,05,23,18.90
2006,07,22,05,24,19.00
2006,07,22,05,25,19.10
2006,07,22,05,26,19.10
2006,07,22,05,27,19.10
2006,07,22,05,28,19.10
2006,07,22,05,29,19.10
2006,07,22,05,30,19.10
2006,07,22,05,31,19.20
2006,07,22,05,32,19.30
2006,07,22,05,33,19.40
2006,07,22,05,34,19.50
2006,07,22,05,35,19.50
2006,07,22,05,36,19.50
2006,07,22,05,37,19.50
2006,07,22,05,38,19.50
2006,07,22,05,39,19.40
2006,07,22,05,40,19.30
2006,07,22,05,41,19.30
2006,07,22,05,42,19.20
2006,07,22,05,43,19.10
2006,07,22,05,44,19.10
2006,07,22,05,45,18.90
2006,07,22,05,46,18.90
2006,07,22,05,47,18.90
2006,07,22,05,48,18.80
2006,07,22,05,49,18.80
2006,07,22,05,50,18.70
2006,07,22,05,51,18.70
2006,07,22,05,52,18.70
2006,07,22,05,53,18.70
2006,07,22,05,54,18.70
2006,07,22,05,55,18.70
2006,07,22,05,56,18.60
2006,07,22,05,57,18.60
2006,07,22,05,58,18.60
2006,07,22,05,59,18.60
2006,07,22,06,00,18.50
2006,07,22,06,01,18.50
2006,07,22,06,02,18.50
2006,07,22,06,03,18.50
2006,07,22,06,04,18.50
2006,07,22,06,05,18.50
2006,07,22,06,06,18.50
2006,07,22,06,07,18.50
2006,07,22,06,08,18.50
2006,07,22,06,09,18.50
2006,07,22,06,10,18.50
2006,07,22,06,11,18.50
2006,07,22,06,12,18.40
2006,07,22,06,13,18.40
2006,07,22,06,14,18.40
2006,07,22,06,15,18.40
2006,07,22,06,16,18.50
2006,07,22,06,17,18.50
2006,07,22,06,18,18.50
2006,07,22,06,19,18.50
2006,07,22,06,20,18.50
2006,07,22,06,21,18.50
2006,07,22,06,22,18.50
2006,07,22,06,23,18.50
2006,07,22,06,24,18.60
2006,07,22,06,25,18.60
2006,07,22,06,26,18.60
2006,07,22,06,27,18.70
2006,07,22,06,28,18.70
2006,07,22,06,29,18.70
2006,07,22,06,30,18.80
2006,07,22,06,31,18.80
2006,07,22,06,32,18.80
2006,07,22,06,33,18.90
2006,07,22,06,34,18.90
2006,07,22,06,35,18.90
2006,07,22,06,36,18.90
2006,07,22,06,37,18.90
2006,07,22,06,38,18.90
2006,07,22,06,39,18.90
2006,07,22,06,40,18.90
2006,07,22,06,41,19.10
2006,07,22,06,42,19.10
2006,07,22,06,43,19.10
2006,07,22,06,44,19.10
2006,07,22,06,45,19.10
2006,07,22,06,46,19.10
2006,07,22,06,47,19.10
2006,07,22,06,48,19.10
2006,07,22,06,49,19.10
2006,07,22,06,50,19.10
2006,07,22,06,51,19.10
2006,07,22,06,52,19.10
2006,07,22,06,53,19.10
2006,07,22,06,54,19.10
2006,07,22,06,55,19.10
2006,07,22,06,56,19.10
2006,07,22,06,57,19.10
2006,07,22,06,58,19.10
2006,07,22,06,59,19.10
2006,07,22,07,00,19.10
2006,07,22,07,01,19.10
2006,07,22,07,02,19.20
2006,07,22,07,03,19.20
2006,07,22,07,04,19.20
2006,07,22,07,05,19.30
2006,07,22,07,06,19.30
2006,07,22,07,07,19.30
2006,07,22,07,08,19.40
2006,07,22,07,09,19.40
2006,07,22,07,10,19.50
2006,07,22,07,11,19.50
2006,07,22,07,12,19.60
2006,07,22,07,13,19.60
2006,07,22,07,14,19.70
2006,07,22,07,15,19.70
2006,07,22,07,16,19.80
2006,07,22,07,17,19.80
2006,07,22,07,18,19.90
2006,07,22,07,19,19.90
2006,07,22,07,20,19.90
2006,07,22,07,21,19.90
2006,07,22,07,22,20.10
2006,07,22,07,23,20.10
2006,07,22,07,24,20.20
2006,07,22,07,25,20.20
2006,07,22,07,26,20.20
2006,07,22,07,27,20.20
2006,07,22,07,28,20.30
2006,07,22,07,29,20.30
2006,07,22,07,30,20.40
2006,07,22,07,31,20.50
2006,07,22,07,32,20.50
2006,07,22,07,33,20.60
2006,07,22,07,34,20.70
2006,07,22,07,35,20.70
2006,07,22,07,36,20.80
2006,07,22,07,37,20.90
2006,07,22,07,38,21.00
2006,07,22,07,39,21.00
2006,07,22,07,40,21.20
2006,07,22,07,41,21.30
2006,07,22,07,42,21.30
2006,07,22,07,43,21.30
2006,07,22,07,44,21.50
2006,07,22,07,45,21.60
2006,07,22,07,46,21.60
2006,07,22,07,47,21.70
2006,07,22,07,48,21.80
2006,07,22,07,49,21.90
2006,07,22,07,50,21.90
2006,07,22,07,51,22.00
2006,07,22,07,52,22.00
2006,07,22,07,53,22.00
2006,07,22,07,54,22.00
2006,07,22,07,55,22.00
2006,07,22,07,56,22.00
2006,07,22,07,57,22.00
2006,07,22,07,58,22.00
2006,07,22,07,59,22.10
2006,07,22,08,00,22.10
2006,07,22,08,01,22.20
2006,07,22,08,02,22.30
2006,07,22,08,03,22.30
2006,07,22,08,04,22.40
2006,07,22,08,05,22.40
2006,07,22,08,06,22.40
2006,07,22,08,07,22.50
2006,07,22,08,08,22.50
2006,07,22,08,09,22.50
2006,07,22,08,10,22.40
2006,07,22,08,11,22.50
2006,07,22,08,12,22.50
2006,07,22,08,13,22.50
2006,07,22,08,14,22.60
2006,07,22,08,15,22.60
2006,07,22,08,16,22.60
2006,07,22,08,17,22.70
2006,07,22,08,18,22.70
2006,07,22,08,19,22.60
2006,07,22,08,20,22.60
2006,07,22,08,21,22.60
2006,07,22,08,22,22.60
2006,07,22,08,23,22.60
2006,07,22,08,24,22.70
2006,07,22,08,25,22.70
2006,07,22,08,26,22.80
2006,07,22,08,27,22.80
2006,07,22,08,28,22.80
2006,07,22,08,29,22.80
2006,07,22,08,30,22.80
2006,07,22,08,31,22.80
2006,07,22,08,32,22.70
2006,07,22,08,33,22.70
2006,07,22,08,34,22.70
2006,07,22,08,35,22.80
2006,07,22,08,36,22.80
2006,07,22,08,37,22.80
2006,07,22,08,38,22.80
2006,07,22,08,39,22.90
2006,07,22,08,40,22.90
2006,07,22,08,41,23.00
2006,07,22,08,42,23.10
2006,07,22,08,43,23.20
2006,07,22,08,44,23.30
2006,07,22,08,45,23.30
2006,07,22,08,46,23.40
2006,07,22,08,47,23.60
2006,07,22,08,48,23.60
2006,07,22,08,49,23.70
2006,07,22,08,50,23.70
2006,07,22,08,51,23.80
2006,07,22,08,52,23.90
2006,07,22,08,53,24.00
2006,07,22,08,54,24.10
2006,07,22,08,55,24.30
2006,07,22,08,56,24.40
2006,07,22,08,57,24.60
2006,07,22,08,58,24.70
2006,07,22,08,59,24.80
2006,07,22,09,00,24.90
2006,07,22,09,01,24.90
2006,07,22,09,02,24.90
2006,07,22,09,03,24.90
2006,07,22,09,04,25.00
2006,07,22,09,05,25.10
2006,07,22,09,06,25.30
2006,07,22,09,07,25.50
2006,07,22,09,08,25.70
2006,07,22,09,09,25.80
2006,07,22,09,10,25.90
2006,07,22,09,11,26.00
2006,07,22,09,12,26.00
2006,07,22,09,13,26.00
2006,07,22,09,14,26.10
2006,07,22,09,15,26.20
2006,07,22,09,16,26.30
2006,07,22,09,17,26.40
2006,07,22,09,18,26.50
2006,07,22,09,19,26.60
2006,07,22,09,20,26.70
2006,07,22,09,21,26.70
2006,07,22,09,22,26.80
2006,07,22,09,23,26.90
2006,07,22,09,24,26.90
2006,07,22,09,25,26.90
2006,07,22,09,26,27.00
2006,07,22,09,27,27.10
2006,07,22,09,28,27.10
2006,07,22,09,29,27.10
2006,07,22,09,30,27.10
2006,07,22,09,31,27.00
2006,07,22,09,32,26.90
2006,07,22,09,33,26.80
2006,07,22,09,34,26.60
2006,07,22,09,35,26.40
2006,07,22,09,36,26.30
2006,07,22,09,37,26.10
2006,07,22,09,38,26.00
2006,07,22,09,39,25.90
2006,07,22,09,40,25.90
2006,07,22,09,41,25.80
2006,07,22,09,42,25.70
2006,07,22,09,43,25.60
2006,07,22,09,44,25.60
2006,07,22,09,45,25.50
2006,07,22,09,46,25.40
2006,07,22,09,47,25.40
2006,07,22,09,48,25.30
2006,07,22,09,49,25.20
2006,07,22,09,50,25.20
2006,07,22,09,51,25.10
2006,07,22,09,52,25.00
2006,07,22,09,53,24.90
2006,07,22,09,54,24.80
2006,07,22,09,55,24.80
2006,07,22,09,56,24.80
2006,07,22,09,57,24.70
2006,07,22,09,58,24.70
2006,07,22,09,59,24.60
2006,07,22,10,00,24.60
2006,07,22,10,01,24.60
2006,07,22,10,02,24.60
2006,07,22,10,03,24.60
2006,07,22,10,04,24.60
2006,07,22,10,05,24.60
2006,07,22,10,06,24.70
2006,07,22,10,07,24.70
2006,07,22,10,08,24.80
2006,07,22,10,09,24.90
2006,07,22,10,10,24.90
2006,07,22,10,11,25.00
2006,07,22,10,12,25.00
2006,07,22,10,13,25.00
2006,07,22,10,14,25.10
2006,07,22,10,15,25.20
2006,07,22,10,16,25.30
2006,07,22,10,17,25.40
2006,07,22,10,18,25.40
2006,07,22,10,19,25.40
2006,07,22,10,20,25.70
2006,07,22,10,21,25.70
2006,07,22,10,22,25.80
2006,07,22,10,23,25.80
2006,07,22,10,24,25.80
2006,07,22,10,25,25.90
2006,07,22,10,26,25.90
2006,07,22,10,27,25.90
2006,07,22,10,28,25.90
2006,07,22,10,29,25.90
2006,07,22,10,30,25.80
2006,07,22,10,31,25.80
2006,07,22,10,32,25.80
2006,07,22,10,33,25.80
2006,07,22,10,34,25.90
2006,07,22,10,35,26.20
2006,07,22,10,36,26.30
2006,07,22,10,37,26.20
2006,07,22,10,38,26.20
2006,07,22,10,39,26.10
2006,07,22,10,40,26.10
2006,07,22,10,41,26.10
2006,07,22,10,42,26.10
2006,07,22,10,43,26.10
2006,07,22,10,44,26.20
2006,07,22,10,45,26.20
2006,07,22,10,46,26.30
2006,07,22,10,47,26.40
2006,07,22,10,48,26.40
2006,07,22,10,49,26.40
2006,07,22,10,50,26.40
2006,07,22,10,51,26.50
2006,07,22,10,52,26.60
2006,07,22,10,53,26.60
2006,07,22,10,54,26.70
2006,07,22,10,55,26.80
2006,07,22,10,56,26.60
2006,07,22,10,57,26.40
2006,07,22,10,58,26.20
2006,07,22,10,59,26.20
2006,07,22,11,00,26.20
2006,07,22,11,01,26.20
2006,07,22,11,02,26.10
2006,07,22,11,03,26.10
2006,07,22,11,04,26.00
2006,07,22,11,05,26.10
2006,07,22,11,06,26.30
2006,07,22,11,07,26.30
2006,07,22,11,08,26.40
2006,07,22,11,09,26.50
2006,07,22,11,10,26.60
2006,07,22,11,11,26.60
2006,07,22,11,12,26.50
2006,07,22,11,13,26.40
2006,07,22,11,14,26.30
2006,07,22,11,15,26.20
2006,07,22,11,16,26.20
2006,07,22,11,17,26.30
2006,07,22,11,18,26.40
2006,07,22,11,19,26.50
2006,07,22,11,20,26.60
2006,07,22,11,21,26.80
2006,07,22,11,22,26.80
2006,07,22,11,23,26.80
2006,07,22,11,24,26.80
2006,07,22,11,25,26.80
2006,07,22,11,26,26.60
2006,07,22,11,27,26.60
2006,07,22,11,28,26.60
2006,07,22,11,29,26.60
2006,07,22,11,30,26.60
2006,07,22,11,31,26.60
2006,07,22,11,32,26.70
2006,07,22,11,33,26.80
2006,07,22,11,34,26.90
2006,07,22,11,35,27.00
2006,07,22,11,36,27.10
2006,07,22,11,37,27.20
2006,07,22,11,38,27.40
2006,07,22,11,39,27.50
2006,07,22,11,40,27.60
2006,07,22,11,41,27.60
2006,07,22,11,42,27.70
2006,07,22,11,43,27.80
2006,07,22,11,44,27.80
2006,07,22,11,45,27.80
2006,07,22,11,46,27.50
2006,07,22,11,47,27.30
2006,07,22,11,48,27.30
2006,07,22,11,49,27.20
2006,07,22,11,50,27.30
2006,07,22,11,51,27.50
2006,07,22,11,52,27.60
2006,07,22,11,53,27.50
2006,07,22,11,54,27.40
2006,07,22,11,55,27.30
2006,07,22,11,56,27.30
2006,07,22,11,57,27.30
2006,07,22,11,58,27.30
2006,07,22,11,59,27.30
2006,07,22,12,00,27.40
2006,07,22,12,01,27.50
2006,07,22,12,02,27.60
2006,07,22,12,03,27.60
2006,07,22,12,04,27.80
2006,07,22,12,05,27.90
2006,07,22,12,06,28.00
2006,07,22,12,07,28.00
2006,07,22,12,08,28.10
2006,07,22,12,09,28.20
2006,07,22,12,10,28.20
2006,07,22,12,11,28.10
2006,07,22,12,12,28.20
2006,07,22,12,13,28.30
2006,07,22,12,14,28.30
2006,07,22,12,15,28.30
2006,07,22,12,16,28.30
2006,07,22,12,17,28.30
2006,07,22,12,18,28.20
2006,07,22,12,19,28.20
2006,07,22,12,20,28.00
2006,07,22,12,21,27.90
2006,07,22,12,22,27.90
2006,07,22,12,23,27.90
2006,07,22,12,24,27.90
2006,07,22,12,25,27.90
2006,07,22,12,26,27.70
2006,07,22,12,27,27.70
2006,07,22,12,28,27.60
2006,07,22,12,29,27.60
2006,07,22,12,30,27.60
2006,07,22,12,31,27.60
2006,07,22,12,32,27.60
2006,07,22,12,33,27.60
2006,07,22,12,34,27.60
2006,07,22,12,35,27.70
2006,07,22,12,36,27.70
2006,07,22,12,37,27.70
2006,07,22,12,38,27.80
2006,07,22,12,39,27.80
2006,07,22,12,40,27.90
2006,07,22,12,41,27.90
2006,07,22,12,42,28.00
2006,07,22,12,43,28.00
2006,07,22,12,44,28.20
2006,07,22,12,45,28.20
2006,07,22,12,46,28.20
2006,07,22,12,47,28.30
2006,07,22,12,48,28.40
2006,07,22,12,49,28.40
2006,07,22,12,50,28.50
2006,07,22,12,51,28.60
2006,07,22,12,52,28.60
2006,07,22,12,53,28.70
2006,07,22,12,54,28.80
2006,07,22,12,55,28.80
2006,07,22,12,56,28.80
2006,07,22,12,57,28.80
2006,07,22,12,58,28.80
2006,07,22,12,59,28.80
2006,07,22,13,00,28.80
2006,07,22,13,01,28.80
2006,07,22,13,02,28.90
2006,07,22,13,03,29.00
2006,07,22,13,04,29.10
2006,07,22,13,05,29.20
2006,07,22,13,06,29.20
2006,07,22,13,07,29.30
2006,07,22,13,08,29.40
2006,07,22,13,09,29.50
2006,07,22,13,10,29.60
2006,07,22,13,11,29.60
2006,07,22,13,12,29.60
2006,07,22,13,13,29.60
2006,07,22,13,14,29.60
2006,07,22,13,15,29.60
2006,07,22,13,16,29.70
2006,07,22,13,17,29.80
2006,07,22,13,18,29.90
2006,07,22,13,19,30.10
2006,07,22,13,20,30.20
2006,07,22,13,21,30.20
2006,07,22,13,22,30.20
2006,07,22,13,23,30.20
2006,07,22,13,24,30.30
2006,07,22,13,25,30.30
2006,07,22,13,26,30.30
2006,07,22,13,27,30.30
2006,07,22,13,28,30.50
2006,07,22,13,29,30.60
2006,07,22,13,30,30.70
2006,07,22,13,31,30.70
2006,07,22,13,32,30.90
2006,07,22,13,33,31.00
2006,07,22,13,34,31.00
2006,07,22,13,35,31.10
2006,07,22,13,36,31.10
2006,07,22,13,37,31.10
2006,07,22,13,38,31.20
2006,07,22,13,39,31.20
2006,07,22,13,40,31.20
2006,07,22,13,41,31.20
2006,07,22,13,42,31.30
2006,07,22,13,43,31.40
2006,07,22,13,44,31.50
2006,07,22,13,45,31.60
2006,07,22,13,46,31.60
2006,07,22,13,47,31.70
2006,07,22,13,48,31.70
2006,07,22,13,49,31.60
2006,07,22,13,50,31.60
2006,07,22,13,51,31.60
2006,07,22,13,52,31.60
2006,07,22,13,53,31.60
2006,07,22,13,54,31.40
2006,07,22,13,55,31.30
2006,07,22,13,56,31.10
2006,07,22,13,57,31.00
2006,07,22,13,58,30.90
2006,07,22,13,59,30.90
2006,07,22,14,00,30.90
2006,07,22,14,01,30.90
2006,07,22,14,02,30.90
2006,07,22,14,03,30.80
2006,07,22,14,04,30.60
2006,07,22,14,05,30.50
2006,07,22,14,06,30.20
2006,07,22,14,07,30.10
2006,07,22,14,08,29.90
2006,07,22,14,09,29.80
2006,07,22,14,10,29.90
2006,07,22,14,11,29.80
2006,07,22,14,12,29.90
2006,07,22,14,13,29.90
2006,07,22,14,14,29.90
2006,07,22,14,15,30.10
2006,07,22,14,16,30.00
2006,07,22,14,17,29.90
2006,07,22,14,18,29.80
2006,07,22,14,19,29.70
2006,07,22,14,20,29.70
2006,07,22,14,21,29.70
2006,07,22,14,22,29.70
2006,07,22,14,23,29.80
2006,07,22,14,24,29.80
2006,07,22,14,25,29.80
2006,07,22,14,26,29.70
2006,07,22,14,27,29.70
2006,07,22,14,28,29.60
2006,07,22,14,29,29.60
2006,07,22,14,30,29.60
2006,07,22,14,31,29.60
2006,07,22,14,32,29.60
2006,07,22,14,33,29.50
2006,07,22,14,34,29.60
2006,07,22,14,35,29.70
2006,07,22,14,36,29.70
2006,07,22,14,37,29.80
2006,07,22,14,38,29.90
2006,07,22,14,39,30.00
2006,07,22,14,40,30.20
2006,07,22,14,41,30.30
2006,07,22,14,42,30.40
2006,07,22,14,43,30.50
2006,07,22,14,44,30.60
2006,07,22,14,45,30.60
2006,07,22,14,46,30.60
2006,07,22,14,47,30.70
2006,07,22,14,48,30.60
2006,07,22,14,49,30.60
2006,07,22,14,50,30.60
2006,07,22,14,51,30.40
2006,07,22,14,52,30.10
2006,07,22,14,53,30.00
2006,07,22,14,54,29.90
2006,07,22,14,55,29.90
2006,07,22,14,56,30.10
2006,07,22,14,57,30.30
2006,07,22,14,58,30.40
2006,07,22,14,59,30.40
2006,07,22,15,00,30.40
2006,07,22,15,01,30.60
2006,07,22,15,02,30.60
2006,07,22,15,03,30.60
2006,07,22,15,04,30.60
2006,07,22,15,05,30.60
2006,07,22,15,06,30.60
2006,07,22,15,07,30.60
2006,07,22,15,08,30.70
2006,07,22,15,09,30.80
2006,07,22,15,10,30.80
2006,07,22,15,11,30.90
2006,07,22,15,12,30.90
2006,07,22,15,13,31.00
2006,07,22,15,14,31.00
2006,07,22,15,15,31.00
2006,07,22,15,16,31.10
2006,07,22,15,17,31.10
2006,07,22,15,18,31.00
2006,07,22,15,19,31.00
2006,07,22,15,20,30.90
2006,07,22,15,21,30.80
2006,07,22,15,22,30.90
2006,07,22,15,23,31.00
2006,07,22,15,24,31.00
2006,07,22,15,25,31.00
2006,07,22,15,26,31.00
2006,07,22,15,27,31.00
2006,07,22,15,28,31.00
2006,07,22,15,29,31.00
2006,07,22,15,30,31.10
2006,07,22,15,31,31.10
2006,07,22,15,32,31.10
2006,07,22,15,33,31.10
2006,07,22,15,34,31.00
2006,07,22,15,35,31.10
2006,07,22,15,36,31.10
2006,07,22,15,37,31.20
2006,07,22,15,38,31.20
2006,07,22,15,39,31.20
2006,07,22,15,40,31.10
2006,07,22,15,41,31.00
2006,07,22,15,42,31.00
2006,07,22,15,43,30.90
2006,07,22,15,44,30.90
2006,07,22,15,45,31.00
2006,07,22,15,46,31.00
2006,07,22,15,47,31.10
2006,07,22,15,48,31.10
2006,07,22,15,49,31.10
2006,07,22,15,50,31.10
2006,07,22,15,51,31.10
2006,07,22,15,52,31.00
2006,07,22,15,53,31.00
2006,07,22,15,54,31.00
2006,07,22,15,55,31.00
2006,07,22,15,56,31.10
2006,07,22,15,57,31.10
2006,07,22,15,58,31.20
2006,07,22,15,59,31.30
2006,07,22,16,00,31.40
2006,07,22,16,01,31.50
2006,07,22,16,02,31.60
2006,07,22,16,03,31.60
2006,07,22,16,04,31.60
2006,07,22,16,05,31.50
2006,07,22,16,06,31.40
2006,07,22,16,07,31.40
2006,07,22,16,08,31.50
2006,07,22,16,09,31.60
2006,07,22,16,10,31.70
2006,07,22,16,11,31.70
2006,07,22,16,12,31.70
2006,07,22,16,13,31.70
2006,07,22,16,14,31.60
2006,07,22,16,15,31.60
2006,07,22,16,16,31.60
2006,07,22,16,17,31.60
2006,07,22,16,18,31.60
2006,07,22,16,19,31.60
2006,07,22,16,20,31.60
2006,07,22,16,21,31.70
2006,07,22,16,22,31.70
2006,07,22,16,23,31.70
2006,07,22,16,24,31.70
2006,07,22,16,25,31.80
2006,07,22,16,26,31.70
2006,07,22,16,27,31.70
2006,07,22,16,28,31.60
2006,07,22,16,29,31.50
2006,07,22,16,30,31.40
2006,07,22,16,31,31.40
2006,07,22,16,32,31.30
2006,07,22,16,33,31.20
2006,07,22,16,34,31.20
2006,07,22,16,35,31.20
2006,07,22,16,36,31.30
2006,07,22,16,37,31.30
2006,07,22,16,38,31.30
2006,07,22,16,39,31.20
2006,07,22,16,40,31.10
2006,07,22,16,41,31.00
2006,07,22,16,42,31.00
2006,07,22,16,43,31.00
2006,07,22,16,44,30.90
2006,07,22,16,45,30.90
2006,07,22,16,46,30.80
2006,07,22,16,47,30.70
2006,07,22,16,48,30.60
2006,07,22,16,49,30.40
2006,07,22,16,50,30.40
2006,07,22,16,51,30.30
2006,07,22,16,52,30.30
2006,07,22,16,53,30.30
2006,07,22,16,54,30.30
2006,07,22,16,55,30.40
2006,07,22,16,56,30.40
2006,07,22,16,57,30.40
2006,07,22,16,58,30.40
2006,07,22,16,59,30.30
2006,07,22,17,00,30.30
2006,07,22,17,01,30.30
2006,07,22,17,02,30.30
2006,07,22,17,03,30.40
2006,07,22,17,04,30.40
2006,07,22,17,05,30.40
2006,07,22,17,06,30.40
2006,07,22,17,07,30.40
2006,07,22,17,08,30.40
2006,07,22,17,09,30.40
2006,07,22,17,10,30.40
2006,07,22,17,11,30.50
2006,07,22,17,12,30.40
2006,07,22,17,13,30.30
2006,07,22,17,14,30.30
2006,07,22,17,15,30.20
2006,07,22,17,16,30.10
2006,07,22,17,17,30.10
2006,07,22,17,18,30.20
2006,07,22,17,19,30.20